Location: Young's Pond
(41.2695°N, 72.7766°W)
Time: 17:24:38
(UTC-04:00)

Spot 4 - Visible Passes

Search period start: 24 April 2014 00:00
Search period end: 04 May 2014 00:00
Orbit: 707 x 725 km, 98.5° (Epoch: 23 April)

Date Brightness Start Highest point End Pass type
(mag) Time Alt. Az. Time Alt. Az. Time Alt. Az.
24 Apr 5.3 20:55:19 17° E 20:57:18 22° ENE 21:00:57 10° NNE visible
24 Apr 4.7 22:34:29 42° WSW 22:34:59 43° W 22:39:37 10° NNW visible
25 Apr 4.0 21:42:45 45° ESE 21:43:55 59° ENE 21:48:42 10° N visible
25 Apr 6.2 23:21:55 15° W 23:22:16 15° W 23:25:03 10° NW visible
26 Apr 5.4 20:51:01 15° E 20:53:14 20° ENE 20:56:42 10° NNE visible
26 Apr 4.5 22:30:11 44° SW 22:30:51 48° W 22:35:34 10° NNW visible
27 Apr 4.1 21:38:27 40° ESE 21:39:50 53° ENE 21:44:33 10° N visible
27 Apr 6.1 23:17:36 16° W 23:18:07 17° W 23:21:12 10° NW visible
28 Apr 5.5 20:46:42 13° E 20:49:10 18° ENE 20:52:26 10° NNE visible
28 Apr 4.4 22:25:52 46° SW 22:26:44 53° W 22:31:29 10° NNW visible
29 Apr 4.2 21:34:08 35° ESE 21:35:44 48° ENE 21:40:24 10° N visible
29 Apr 5.9 23:13:18 18° WSW 23:13:57 18° W 23:17:18 10° NW visible
30 Apr 5.6 20:42:24 11° E 20:45:06 17° ENE 20:48:07 10° NNE visible
30 Apr 4.2 22:21:34 47° SSW 22:22:36 58° W 22:27:24 10° NNW visible
01 May 4.4 21:29:49 30° ESE 21:31:38 44° ENE 21:36:13 10° N visible
01 May 5.8 23:08:59 19° WSW 23:09:48 20° W 23:13:22 10° NW visible
02 May 5.7 20:38:18 10° E 20:41:02 15° ENE 20:43:47 10° NNE visible
02 May 4.1 22:17:15 47° SSW 22:18:29 65° WSW 22:23:18 10° NNW visible
03 May 4.5 21:25:31 27° ESE 21:27:32 40° ENE 21:32:02 10° N visible
03 May 5.7 23:04:40 21° WSW 23:05:38 22° W 23:09:24 10° NW visible
